Regional Weather Roundup
Issued by NWS Little Rock, AR

Home | Current Version | Previous Version | Text Only | Print | Product List | Glossary On
Versions: 1 2 3 4 5 6 7 8 9 10 11 12 13 14 15 16 17 18 19 20 21 22 23 24 25 26 27 28 29 30 31 32 33 34 35 36 37 38 39 40 41 42 43 44 45 46 47 48 49 50
000
ASUS44 KLZK 020205
RWRLZK

WEATHER ROUNDUP FOR ARKANSAS
NATIONAL WEATHER SERVICE LITTLE ROCK AR
900 PM CDT MON SEP 01 2014

NOTE: "FAIR" INDICATES FEW OR NO CLOUDS BELOW 12,000 FEET WITH NO
SIGNIFICANT WEATHER AND/OR OBSTRUCTIONS TO VISIBILITY.

ARZ001-003-010-029-020300-
NORTHWEST ARKANSAS

CITY           SKY/WX    TMP DP  RH WIND       PRES   REMARKS
FAYETTEVILLE   CLEAR     79  69  71 S6        29.89R
FORT SMITH     CLEAR     85  70  60 CALM      29.86R HX  89
HARRISON       CLEAR     77  70  79 S9        29.91R
BENTONVILLE    PTCLDY    81  68  65 S7        29.89F
ROGERS         PTCLDY    80  68  66 SE5       29.91R
HIGHFILL       PTCLDY    79  69  71 S7        29.87F
SPRINGDALE     CLEAR     81  70  69 S12       29.90F
$$

ARZ004-005-016-020300-
NORTH CENTRAL ARKANSAS

CITY           SKY/WX    TMP DP  RH WIND       PRES   REMARKS
BATESVILLE     CLEAR     82  72  69 S7        29.91R HX  87
FLIPPIN        CLEAR     81  66  61 SE3       29.91R
MTN HOME       CLEAR     79  70  74 S9        29.90R
$$

ARZ040-041-020300-
WEST CENTRAL ARKANSAS

CITY           SKY/WX    TMP DP  RH WIND       PRES   REMARKS
MENA           CLEAR     84  72  65 SE3       29.92S HX  89
MOUNT IDA      CLEAR     83  73  72 SE8       29.90S HX  89
$$

ARZ009-017-025-026-028-020300-
NORTHEAST ARKANSAS

CITY           SKY/WX    TMP DP  RH WIND       PRES   REMARKS
CORNING          N/A     79  73  83 S8        29.92R
JONESBORO      CLEAR     81  71  71 S6        29.92S HX  85
NEWPORT        CLEAR     80  74  82 S7        29.93R
WALNUT RIDGE   CLEAR     79  59  50 S10       29.91R
BLYTHEVILLE    CLEAR     79  74  84 S7        29.94S
$$

ARZ022-023-033-042-044-020300-
CENTRAL ARKANSAS

CITY           SKY/WX    TMP DP  RH WIND       PRES   REMARKS
LITTLE ROCK    CLEAR     82  72  71 S7        29.92S HX  87
N LITTLE ROCK  CLEAR     83  75  77 S8G15     29.92S HX  89
JACKSONVILLE   CLEAR     83  73  72 S5        29.92S HX  88
SEARCY         CLEAR     79  74  84 W5        29.93S
HOT SPRINGS    CLEAR     83  73  72 S7        29.93S HX  89
RUSSELLVILLE   CLEAR     80  72  76 SE3       29.89R
CLINTON        FAIR      81  73  78 S5        29.91R HX  85
$$

ARZ036-020300-
EAST ARKANSAS

CITY           SKY/WX    TMP DP  RH WIND       PRES   REMARKS
WEST MEMPHIS   CLEAR     77  75  93 S7        29.94S
$$

ARZ050-053-066-070-073-020300-
SOUTHWEST ARKANSAS

CITY           SKY/WX    TMP DP  RH WIND       PRES   REMARKS
ARKADELPHIA    FAIR      82  76  82 S5        29.92S HX  89
CAMDEN         CLEAR     81  73  78 S6        29.94S HX  85
TEXARKANA      CLEAR     84  74  71 SE12      29.92R HX  91
EL DORADO      CLEAR     80  76  87 SE3       29.95R HX  86
DE QUEEN       CLEAR     83  72  69 SE6       29.87S HX  88
$$

ARZ056-057-069-020300-
SOUTHEAST ARKANSAS

CITY           SKY/WX    TMP DP  RH WIND       PRES   REMARKS
PINE BLUFF     CLEAR     79  74  84 S7        29.94S
STUTTGART      CLEAR     81  73  78 SE8       29.94S HX  85
MONTICELLO     CLEAR     82  74  76 S8        29.96R HX  88

$$




USA.gov is the U.S. government's official web portal to all federal, state and local government web resources and services.